FW2969 Weather Reports


time (UTC)temp
F
wind
direction
speed
knots
gust
knots
rain 1hr
in
rain 24hr
in
rain mn
in
humidity
%
barometer
mb
20260508233039 62 64 0.0 1.7 0.00 0.00 0.00 57 1015.0
20260508231538 63 36 0.0 0.9 0.00 0.00 0.00 56 1014.9
20260508230042 63 36 0.0 0.0 0.00 0.00 0.00 56 1015.1
20260508224535 63 36 0.0 0.9 0.00 0.00 0.00 57 1015.2
20260508223032 63 36 0.0 0.9 0.00 0.00 0.00 58 1015.4
20260508221531 62 36 0.0 0.0 0.00 0.00 0.00 58 1015.5
20260508220030 63 35 0.0 0.0 0.00 0.00 0.00 58 1015.5
20260508214532 62 35 0.0 0.9 0.00 0.00 0.00 59 1015.6
20260508213126 62 30 0.0 0.0 0.00 0.00 0.00 61 1015.7
20260508211535 62 30 0.0 0.9 0.00 0.00 0.00 61 1015.6
20260508210026 63 30 0.0 0.0 0.00 0.00 0.00 61 1015.8
20260508204522 63 30 0.0 0.0 0.00 0.00 0.00 60 1016.0
20260508203022 64 30 0.0 0.0 0.00 0.00 0.00 58 1016.1
20260508201522 64 30 0.0 1.7 0.00 0.00 0.00 57 1016.1
20260508200023 64 72 0.0 2.6 0.00 0.00 0.00 55 1016.2
20260508194529 65 45 0.0 0.9 0.00 0.00 0.00 53 1016.3
20260508193019 64 49 0.0 3.5 0.00 0.00 0.00 49 1016.5
20260508191526 64 10 0.0 4.3 0.00 0.00 0.00 50 1016.5
20260508190018 63 41 0.0 0.9 0.00 0.00 0.00 53 1016.7
20260508184518 63 27 0.0 2.6 0.00 0.00 0.00 51 1016.8
20260508183023 63 38 0.0 3.5 0.00 0.00 0.00 49 1016.8
20260508181516 64 13 0.9 4.3 0.00 0.00 0.00 48 1016.8
20260508180016 63 331 0.0 2.6 0.00 0.00 0.00 47 1016.8
20260508174515 63 334 0.9 4.3 0.00 0.00 0.00 47 1016.6
20260508173016 64 40 0.9 7.0 0.00 0.00 0.00 46 1016.4
20260508171515 64 319 0.9 7.8 0.00 0.00 0.00 46 1016.3
20260508170014 64 334 1.7 6.1 0.00 0.00 0.00 47 1016.1
20260508164514 64 59 0.9 5.2 0.00 0.00 0.00 49 1015.9
20260508163016 65 1 0.9 4.3 0.00 0.00 0.00 48 1015.8
20260508161512 65 319 0.9 5.2 0.00 0.00 0.00 47 1015.7
20260508160011 66 318 0.0 5.2 0.00 0.00 0.00 47 1015.6
20260508154532 68 321 0.9 6.1 0.00 0.00 0.00 45 1015.5
20260508153012 69 338 0.9 5.2 0.00 0.00 0.00 47 1015.3
20260508151512 70 340 0.9 7.0 0.00 0.00 0.00 47 1015.3
20260508150007 72 360 1.7 7.0 0.00 0.00 0.00 43 1015.4
20260508144505 72 328 0.0 6.1 0.00 0.00 0.00 44 1015.6
20260508143003 72 38 0.0 8.7 0.00 0.00 0.00 44 1015.4
20260508141504 73 298 0.0 5.2 0.00 0.00 0.00 44 1015.4
20260508140003 73 320 0.9 5.2 0.00 0.00 0.00 43 1015.4
20260508134501 73 293 0.0 6.1 0.00 0.00 0.00 42 1015.4
20260508133102 74 294 0.9 6.1 0.00 0.00 0.00 41 1015.4
20260508131608 73 307 1.7 6.1 0.00 0.00 0.00 39 1015.5
20260508130056 73 303 0.9 5.2 0.00 0.00 0.00 40 1015.6
20260508124555 72 281 2.6 7.8 0.00 0.00 0.00 43 1015.8
20260508123055 72 360 1.7 7.8 0.00 0.00 0.00 50 1015.9
20260508121552 72 277 2.6 8.7 0.00 0.00 0.00 49 1016.0
20260508120050 72 255 1.7 7.0 0.00 0.00 0.00 47 1016.0
20260508114550 71 259 3.5 10.4 0.00 0.00 0.00 48 1016.1
20260508113048 71 314 2.6 8.7 0.00 0.00 0.00 55 1016.1
20260508111551 70 282 1.7 7.8 0.00 0.00 0.00 51 1016.4
20260508110047 70 265 2.6 7.0 0.00 0.00 0.00 59 1016.5
20260508104545 70 245 1.7 7.0 0.00 0.00 0.00 59 1016.5
20260508103045 70 250 2.6 7.0 0.00 0.00 0.00 62 1016.6
20260508101544 69 292 2.6 7.8 0.00 0.00 0.00 63 1016.7
20260508100058 69 319 1.7 7.0 0.00 0.00 0.00 64 1016.8
20260508094544 69 284 3.5 7.0 0.00 0.00 0.00 64 1017.0
20260508093042 68 245 1.7 7.0 0.00 0.00 0.00 71 1017.1
20260508091545 68 288 1.7 5.2 0.00 0.00 0.00 69 1017.3
20260508090106 68 255 1.7 4.3 0.00 0.00 0.00 61 1017.3
20260508084544 67 285 1.7 5.2 0.00 0.00 0.00 60 1017.4
20260508083039 66 280 0.0 2.6 0.00 0.00 0.00 62 1017.6
20260508081553 66 342 0.0 5.2 0.00 0.00 0.00 69 1017.6
20260508080040 67 291 1.7 7.8 0.00 0.00 0.00 63 1017.8
20260508074540 71 197 0.0 4.3 0.00 0.00 0.00 48 1017.7
20260508073040 71 84 0.9 6.1 0.00 0.00 0.00 35 1017.5
20260508071531 71 131 0.9 7.8 0.00 0.00 0.00 40 1017.3
20260508070027 70 107 0.9 5.2 0.00 0.00 0.00 40 1017.3
20260508064527 69 108 1.7 5.2 0.00 0.00 0.00 42 1017.3
20260508063022 68 92 0.0 8.7 0.00 0.00 0.00 42 1017.3
20260508061524 68 124 2.6 7.8 0.00 0.00 0.00 43 1017.4
20260508060017 67 130 1.7 5.2 0.00 0.00 0.00 44 1017.2
20260508054515 66 150 1.7 8.7 0.00 0.00 0.00 46 1017.3
20260508053016 66 155 0.9 7.8 0.00 0.00 0.00 47 1017.2
20260508051509 65 195 0.9 12.2 0.00 0.00 0.00 47 1017.2
20260508050007 64 118 1.7 6.1 0.00 0.00 0.00 48 1017.1
20260508044505 63 88 1.7 6.1 0.00 0.00 0.00 50 1017.2
20260508043100 62 26 0.9 4.3 0.00 0.00 0.00 52 1017.2
20260508041556 61 89 0.0 1.7 0.00 0.00 0.00 54 1017.0
20260508040058 60 81 0.0 3.5 0.00 0.00 0.00 54 1017.0
20260508034553 59 59 0.0 2.6 0.00 0.00 0.00 55 1016.8
20260508033058 59 50 0.9 5.2 0.00 0.00 0.00 54 1016.6
20260508031556 59 63 0.0 5.2 0.00 0.00 0.00 54 1016.5
20260508030058 59 76 0.9 4.3 0.00 0.00 0.00 55 1016.3
20260508024614 59 91 0.0 5.2 0.00 0.01 0.00 54 1016.2
20260508023049 59 91 0.0 5.2 0.00 0.01 0.00 55 1016.1
20260508021550 59 94 0.0 5.2 0.00 0.01 0.00 56 1015.8
20260508020053 59 113 1.7 7.0 0.00 0.01 0.00 56 1015.8
20260508014551 59 98 1.7 5.2 0.00 0.01 0.00 56 1015.9
20260508013043 58 103 0.9 7.8 0.00 0.01 0.00 58 1016.0
20260508011538 57 89 0.0 6.1 0.00 0.01 0.00 61 1016.0
20260508010047 56 71 0.0 5.2 0.00 0.01 0.00 66 1016.2
20260508004542 53 84 0.9 5.2 0.00 0.01 0.00 77 1016.4
20260508003028 52 88 0.0 1.7 0.00 0.01 0.00 86 1016.4
20260508001533 53 136 0.0 1.7 0.00 0.01 0.00 87 1016.6
20260508000024 53 43 0.0 1.7 0.00 0.01 0.00 88 1016.8
20260507234523 53 61 0.0 0.9 0.00 0.01 0.00 89 1016.7